Weather in Manta

Ecuador     0°57′34″N   80°42′42″W
temp.,
°C
wind,
m/s
gust,
m/s
humid.,
%
clouds,
%
prec.,
mm/h
press.,
hPa
HPBL,
m
24 january, mon
mon2401:00+24sw5682100 0.1 1011503
04:00+24ssw578799 0.1 1009520
07:00+23ssw578986 0.4 1010468
10:00+25ssw557858 0.0 1012634
13:00+26sw667487 0.1 1009712
16:00+26sw6769100 0.0 1008751
19:00+24sw688099 0.0 1010545
22:00+23sw6883100 0.1 1012518
25 january, tue
tue2501:00+23sw6884100 0.3 1011588
04:00+23ssw5783100 0.1 1010609
07:00+23ese2380100 0.1 1012390
10:00+24e117578 0.2 1013509
13:00+24wnw1175100 0.3 1011449
16:00+25w327599 0.0 1009640
19:00+24wsw3379100 0.1 1011449
22:00+24sw2383100 0.0 1013257
26 january, wed
wed2601:00+23ssw2388100 0.0 1011179
04:00+22s129098 0.0 1011115
07:00+23sse128885 0.0 1012132
10:00+26ne1268100 0.1 1013734
13:00+26w3275100 0.4 1012518
16:00+26wsw4373100 0.1 1009729
19:00+24sw3483100 0.1 1011435
22:00+24sw238763 0.0 1013296
27 january, thu
thu2701:00+24sw2387100 0.1 1012288
04:00+23ssw2389100 0.5 1011223
07:00+23s129181 2.3 1012122
10:00+24ssw118564 0.7 1014229
13:00+27wnw337165 0.8 1012837
16:00+26wnw447321 0.1 1010836
19:00+25wnw338345 0.3 1011372
22:00+24w238676 0.2 1013286
28 january, fri
fri2801:00+24wnw238785 0.4 1012278
04:00+23wsw229034 2.3 101181
07:00+23sw229018 4.4 1013135
10:00+26wsw227338 2.1 1014628
13:00+27w327136 4.2 1012906
16:00+26w437219 0.3 1009836
19:00+24wsw338217 0.3 1011461
22:00+24sw338612 0.1 1013295